Location: Stavanger
(58.9670°N, 5.7500°E)
Time: 12:11:22
(UTC+02:00)

ISS - Pass Details

Date: 27 March 2019
Orbit: 408 x 410 km, 51.6° (Epoch: 24 April)

Event Time Altitude Azimuth Distance (km) Brightness Sun altitude
Rises 21:44:20 0° 254° (WSW) 2,338 0.5 -19.0°
Reaches altitude 10° 21:46:42 10° 239° (WSW) 1,476 -0.8 -19.3°
Enters shadow 21:48:03 18° 219° (SW) 1,095 -1.7 -19.4°
